Watsonville, CA

8:44 PM PDT on October 20, 2019 (GMT -0700)
Watsonville Municipal

Weather History for KWVI - August, 2019

Change the Weather History Date:

Sunday, August 11, 2019

  Actual Average Record
Temperature  
Mean Temperature 67 °F 64 °F  
Max Temperature 78 °F 74 °F 89 °F (2003)
Min Temperature 55 °F 53 °F 50 °F (2008)
Degree Days  
Heating Degree Days 0    
Month to date heating degree days 6  
Since 1 June heating degree days 144  
Since 1 July heating degree days 53  
Cooling Degree Days 2    
Month to date cooling degree days 12  
Year to date cooling degree days 66  
Since 1 June cooling degree days 66  
Growing Degree Days 16 (Base 50)    
Moisture  
Dew Point 56 °F    
Average Humidity 72    
Maximum Humidity 93    
Minimum Humidity 50    
Precipitation  
Precipitation 0.00 in - 0.05 in (1965)
Month to date precipitation T  
Year to date precipitation 22.76  
Sea Level Pressure  
Sea Level Pressure 30.03 in    
Wind  
Wind Speed 4 mph (SSW)    
Max Wind Speed 12 mph    
Max Gust Speed 19 mph    
Visibility 6 miles    
Events Fog    
T = Trace of Precipitation, MM = Missing Value Source: NWS Daily Summary

Daily Weather History Graph

Daily Weather History Graph

Search for Another Location

Airport or City:

Astronomy

Aug. 11, 2019 Rise Set
Actual Time 6:20 AM PDT 8:03 PM PDT
Civil Twilight 5:52 AM PDT 8:31 PM PDT
Nautical Twilight 5:19 AM PDT 9:04 PM PDT
Astronomical Twilight 4:43 AM PDT 9:40 PM PDT
Moon 5:44 PM PDT (8/11) 2:48 AM PDT (8/11)
Length of Visible Light 14h 38m
Length of Day
13h 42m
Waxing Gibbous, 87% of the Moon is Illuminated
Aug 11
Waxing Gibbous
Aug 15
Full
Aug 23
Last Quarter
Aug 30
New
Sep 5
First Quarter

Hourly Weather History & Observations

Time (PDT) Temp. Dew Point Humidity Pressure Visibility Wind Dir Wind Speed Gust Speed Precip Events Conditions
12:28 AM 57.9 °F 55.0 °F 90% 30.04 in 10.0 mi Calm Calm - N/A   Scattered Clouds
12:37 AM 59.0 °F 55.9 °F 90% 30.04 in 10.0 mi SE 3.5 mph - N/A   Mostly Cloudy
12:49 AM 60.8 °F 57.2 °F 88% 30.04 in 10.0 mi Calm Calm - N/A   Overcast
12:53 AM 60.1 °F 57.0 °F 90% 30.04 in 10.0 mi Calm Calm - N/A   Overcast
1:00 AM 60.1 °F 57.0 °F 90% 30.04 in 10.0 mi Calm Calm - N/A   Overcast
1:53 AM 60.1 °F 55.9 °F 86% 30.03 in 10.0 mi Calm Calm - N/A   Overcast
2:08 AM 60.1 °F 55.9 °F 86% 30.03 in 10.0 mi ENE 3.5 mph - N/A   Overcast
2:53 AM 59.0 °F 57.0 °F 93% 30.02 in 9.0 mi Calm Calm - N/A   Overcast
3:45 AM 59.0 °F 55.9 °F 90% 30.02 in 1.8 mi NNW 3.5 mph - N/A   Overcast
3:53 AM 59.0 °F 55.9 °F 90% 30.03 in 2.0 mi NNE 4.6 mph - N/A   Overcast
4:05 AM 59.0 °F 55.9 °F 90% 30.03 in 1.2 mi Calm Calm - N/A   Overcast
4:14 AM 57.9 °F 55.9 °F 93% 30.03 in 1.5 mi NNW 3.5 mph - N/A   Overcast
4:31 AM 57.9 °F 55.9 °F 93% 30.02 in 2.5 mi Calm Calm - N/A   Overcast
4:40 AM 57.9 °F 55.9 °F 93% 30.02 in 1.5 mi Calm Calm - N/A   Overcast
4:48 AM 57.2 °F 55.4 °F 94% 30.02 in 0.8 mi Calm Calm - N/A   Overcast
4:53 AM 57.9 °F 55.9 °F 93% 30.02 in 0.5 mi Calm Calm - N/A Fog Fog
5:33 AM 57.0 °F 55.9 °F 96% 30.03 in 0.2 mi Calm Calm - N/A Fog Fog
5:53 AM 57.0 °F 55.0 °F 93% 30.03 in 0.5 mi Calm Calm - N/A Fog Fog
6:15 AM 55.0 °F 53.1 °F 93% 30.04 in 1.8 mi Calm Calm - N/A   Mostly Cloudy
6:17 AM 55.0 °F 53.1 °F 93% 30.04 in 3.0 mi Calm Calm - N/A   Mostly Cloudy
6:22 AM 55.0 °F 53.1 °F 93% 30.04 in 1.5 mi Calm Calm - N/A   Mostly Cloudy
6:24 AM 55.0 °F 53.1 °F 93% 30.04 in 0.8 mi Calm Calm - N/A   Mist
6:34 AM 55.0 °F 53.1 °F 93% 30.04 in 0.2 mi Calm Calm - N/A Fog Fog
6:53 AM 55.0 °F 53.1 °F 93% 30.05 in 0.2 mi Calm Calm - N/A Fog Fog
7:05 AM 55.0 °F 54.0 °F 96% 30.05 in 0.5 mi Calm Calm - N/A Fog Fog
7:22 AM 55.9 °F 54.0 °F 93% 30.05 in 1.5 mi Calm Calm - N/A   Mostly Cloudy
7:27 AM 55.9 °F 54.0 °F 93% 30.05 in 3.0 mi Calm Calm - N/A   Mostly Cloudy
7:39 AM 57.0 °F 55.0 °F 93% 30.06 in 10.0 mi Calm Calm - N/A   Scattered Clouds
7:53 AM 57.0 °F 55.0 °F 93% 30.06 in 10.0 mi Calm Calm - N/A   Clear
8:53 AM 63.0 °F 55.9 °F 78% 30.07 in 10.0 mi Calm Calm - N/A   Clear
9:53 AM 70.0 °F 57.0 °F 63% 30.07 in 10.0 mi Calm Calm - N/A   Clear
10:53 AM 75.0 °F 57.0 °F 53% 30.06 in 10.0 mi SSW 5.8 mph - N/A   Clear
11:53 AM 75.9 °F 57.0 °F 52% 30.05 in 10.0 mi SW 9.2 mph - N/A   Clear
12:53 PM 75.9 °F 55.9 °F 50% 30.04 in 10.0 mi WSW 8.1 mph - N/A   Clear
1:53 PM 77.0 °F 57.9 °F 52% 30.03 in 10.0 mi SW 8.1 mph - N/A   Clear
2:53 PM 75.0 °F 57.0 °F 53% 30.01 in 10.0 mi SW 8.1 mph - N/A   Clear
3:53 PM 73.9 °F 57.9 °F 57% 29.99 in 10.0 mi South 6.9 mph - N/A   Clear
4:53 PM 72.0 °F 57.9 °F 61% 29.98 in 10.0 mi South 8.1 mph - N/A   Clear
5:53 PM 73.0 °F 57.9 °F 59% 29.97 in 10.0 mi SSE 6.9 mph - N/A   Clear
6:53 PM 72.0 °F 57.0 °F 59% 29.97 in 10.0 mi South 6.9 mph - N/A   Clear
7:53 PM 66.9 °F 55.9 °F 68% 29.99 in 10.0 mi SW 4.6 mph - N/A   Clear
8:53 PM 64.9 °F 55.0 °F 70% 30.00 in 10.0 mi SW 4.6 mph - N/A   Clear
9:53 PM 64.0 °F 54.0 °F 70% 30.01 in 10.0 mi SSE 3.5 mph - N/A   Clear
10:53 PM 62.1 °F 55.0 °F 78% 30.01 in 10.0 mi Calm Calm - N/A   Clear
11:53 PM 61.0 °F 54.0 °F 78% 30.01 in 10.0 mi Calm Calm - N/A   Clear